Dades meteomassalio
Diari Summary for Abril 10, 2017 Units:  Metric    English   Both
« Previous Day
Next Day »
Diari Semanal Mensual Anual Personalitzat
  Maxima: Minima: Mijana:
Temperatura: -17.8 °C -11.2 °C -8.6 °C
Rosada: -17.8 °C -15.1 °C -14.3 °C
Humitat: Humidity % 29 % 50 %
Velocitat del vent: 0 km/h 0 km/h 0.2 km/h
Racha vent: 0 km/h - -
Vent:- - ENE
Pressio: 0 hPa 34567.7 hPa -
Pluja: 0 mm    
Historical Graphs
 
 
Tabular Data for Abril 10, 2017
Time Temperature Dew Point Pressure Wind Wind Speed Wind Gust Humidity Rainfall Rate (Hourly) solar Conditions
-17.8 °C -17.8 °C 0 hPa Calm     Humidity % 0 mm SolarRadiationWatts/m^2 W/m2 Conditions
20:02 -4.3 °C -15 °C 34567.7 hPa Calm     29 % 0 mm 33.0 W/m2 BKN
20:07 -4.4 °C -15.1 °C 34567.7 hPa Calm     29 % 0 mm 21.0 W/m2 BKN
20:12 -4.6 °C -14.7 °C 34567.7 hPa ENE 9 km/h 9 km/h 31 % 0 mm 16.0 W/m2 BKN
20:17 -4.9 °C -14.4 °C 34567.7 hPa Calm     33 % 0 mm 14.0 W/m2 BKN
20:22 -5.1 °C -14.3 °C 34567.7 hPa Calm     34 % 0 mm 11.0 W/m2 BKN
20:28 -5.2 °C -14.2 °C 34567.7 hPa Calm     35 % 0 mm 7.0 W/m2 BKN
20:33 -5.4 °C -14.1 °C 34567.7 hPa Calm     36 % 0 mm 5.0 W/m2 OVC
20:38 -5.5 °C -14.1 °C 34567.7 hPa Calm     37 % 0 mm 0.0 W/m2 OVC
20:43 -5.7 °C -14.2 °C 34567.7 hPa Calm     37 % 0 mm 0.0 W/m2 OVC
20:48 -5.8 °C -14.1 °C 34567.7 hPa Calm     38 % 0 mm 0.0 W/m2 CLR
20:53 -6 °C -14.1 °C 34567.7 hPa Calm     39 % 0 mm 0.0 W/m2 CLR
20:58 -6.2 °C -14.2 °C 34577.8 hPa Calm     39 % 0 mm 0.0 W/m2 CLR
21:03 -6.4 °C -14.2 °C 34577.8 hPa Calm     40 % 0 mm 0.0 W/m2 CLR
21:13 -6.9 °C -13.9 °C 34577.8 hPa Calm     44 % 0 mm 0.0 W/m2 CLR
21:18 -7.2 °C -13.9 °C 34577.8 hPa Calm     45 % 0 mm 0.0 W/m2 CLR
21:23 -7.4 °C -13.8 °C 34577.8 hPa Calm     47 % 0 mm 0.0 W/m2 CLR
21:28 -7.6 °C -13.9 °C 34577.8 hPa Calm     47 % 0 mm 0.0 W/m2 CLR
21:33 -7.7 °C -13.9 °C 34591.4 hPa Calm     48 % 0 mm 0.0 W/m2 CLR
21:38 -8.1 °C -13.9 °C 34591.4 hPa Calm     50 % 0 mm 0.0 W/m2 CLR
21:43 -8.3 °C -14 °C 34601.5 hPa Calm     51 % 0 mm 0.0 W/m2 CLR
21:48 -8.6 °C -14.1 °C 34601.5 hPa Calm     52 % 0 mm 0.0 W/m2 CLR
21:53 -8.7 °C -14.2 °C 34601.5 hPa Calm     52 % 0 mm 0.0 W/m2 CLR
21:58 -8.9 °C -14.1 °C 34601.5 hPa Calm     54 % 0 mm 0.0 W/m2 CLR
22:03 -9.1 °C -14.1 °C 34601.5 hPa Calm     55 % 0 mm 0.0 W/m2 CLR
22:08 -9.2 °C -14.2 °C 34601.5 hPa Calm     55 % 0 mm 0.0 W/m2 CLR
22:13 -9.3 °C -14.2 °C 34601.5 hPa Calm     56 % 0 mm 0.0 W/m2 CLR
22:18 -9.4 °C -14.1 °C 34601.5 hPa Calm     57 % 0 mm 0.0 W/m2 CLR
22:23 -9.5 °C -14.2 °C 34601.5 hPa Calm     57 % 0 mm 0.0 W/m2 CLR
22:28 -9.8 °C -14.3 °C 34601.5 hPa Calm     58 % 0 mm 0.0 W/m2 CLR
22:33 -9.9 °C -14.2 °C 34611.7 hPa Calm     60 % 0 mm 0.0 W/m2 CLR
22:38 -10.1 °C -14.3 °C 34611.7 hPa Calm     60 % 0 mm 0.0 W/m2 CLR
22:43 -10.2 °C -14.3 °C 34611.7 hPa Calm     61 % 0 mm 0.0 W/m2 CLR
22:48 -10.2 °C -14.2 °C 34611.7 hPa Calm     62 % 0 mm 0.0 W/m2 CLR
22:53 -10.3 °C -14.3 °C 34611.7 hPa Calm     62 % 0 mm 0.0 W/m2 CLR
22:58 -10.4 °C -14.4 °C 34611.7 hPa Calm     62 % 0 mm 0.0 W/m2 CLR
23:03 -10.4 °C -14.4 °C 34611.7 hPa Calm     62 % 0 mm 0.0 W/m2 CLR
23:08 -10.5 °C -14.3 °C 34611.7 hPa Calm     63 % 0 mm 0.0 W/m2 CLR
23:13 -10.6 °C -14.4 °C 34611.7 hPa Calm     63 % 0 mm 0.0 W/m2 CLR
23:18 -10.7 °C -14.5 °C 34611.7 hPa Calm     63 % 0 mm 0.0 W/m2 CLR
23:23 -10.7 °C -14.4 °C 34611.7 hPa Calm     64 % 0 mm 0.0 W/m2 CLR
23:33 -10.6 °C -14.6 °C 34611.7 hPa Calm     62 % 0 mm 0.0 W/m2 CLR
23:38 -10.7 °C -14.5 °C 34625.2 hPa Calm     63 % 0 mm 0.0 W/m2 CLR
23:43 -10.7 °C -14.6 °C 34611.7 hPa Calm     63 % 0 mm 0.0 W/m2 CLR
23:48 -10.9 °C -14.6 °C 34611.7 hPa Calm     64 % 0 mm 0.0 W/m2 CLR
23:53 -11.1 °C -14.6 °C 34625.2 hPa Calm     65 % 0 mm 0.0 W/m2 CLR
23:58 -11.2 °C -14.6 °C 34625.2 hPa Calm     66 % 0 mm 0.0 W/m2 CLR
Lo Temps de Massalio
Compliments of Weather Underground - 512 kb